Location: Vinland
(47.7731°N, 122.6974°W)
Time: 20:06:00
(UTC+00:00)

Tiros 1 - All Passes

Search period start: 21 March 2023 00:00
Search period end: 31 March 2023 00:00
Orbit: 628 x 662 km, 48.4° (Epoch: 21 March)

Date Brightness Start Highest point End Pass type
(mag) Time Alt. Az. Time Alt. Az. Time Alt. Az.
21 Mar - 13:28:41 10° SE 13:29:45 11° SE 13:30:48 10° ESE visible
21 Mar - 15:06:29 10° SW 15:10:58 40° SSE 15:15:27 10° E daylight
21 Mar - 16:48:06 10° WSW 16:52:55 89° S 16:57:42 10° E daylight
21 Mar - 18:30:22 10° W 18:35:11 88° N 18:39:57 10° E daylight
21 Mar - 20:12:39 10° W 20:17:10 44° SSW 20:21:38 10° SE daylight
21 Mar - 21:56:37 10° WSW 21:58:26 12° SW 22:00:14 10° SSW daylight
22 Mar - 13:50:50 10° S 13:54:27 21° SE 13:58:04 10° E daylight
22 Mar - 15:31:18 10° WSW 15:36:02 64° SSE 15:40:47 10° ENE daylight
22 Mar - 17:13:23 10° W 17:18:13 82° N 17:23:00 10° E daylight
22 Mar - 18:55:39 10° WNW 19:00:25 72° SSW 19:05:09 10° ESE daylight
22 Mar - 20:38:12 10° W 20:42:06 26° SW 20:45:58 10° SSE daylight
23 Mar - 14:14:55 10° SW 14:19:20 38° SSE 14:23:45 10° E daylight
23 Mar - 15:56:26 10° WSW 16:01:15 86° SSE 16:06:02 10° E daylight
23 Mar - 17:38:42 10° W 17:43:31 87° N 17:48:18 10° E daylight
23 Mar - 19:20:57 10° W 19:25:32 47° SSW 19:30:05 10° SE daylight
23 Mar - 21:04:34 10° WSW 21:06:51 13° SW 21:09:08 10° SSW daylight
24 Mar - 12:59:25 10° S 13:02:50 20° SE 13:06:17 10° E visible
24 Mar - 14:39:39 10° WSW 14:44:23 61° SSE 14:49:07 10° ENE daylight
24 Mar - 16:21:42 10° W 16:26:32 83° N 16:31:19 10° E daylight
24 Mar - 18:03:58 10° WNW 18:08:46 75° SSW 18:13:30 10° ESE daylight
24 Mar - 19:46:27 10° W 19:50:30 28° SW 19:54:30 10° SSE daylight
25 Mar - 13:23:21 10° SSW 13:27:41 35° SSE 13:32:03 10° E visible
25 Mar - 15:04:45 10° WSW 15:09:34 84° SSE 15:14:23 10° E daylight
25 Mar - 16:47:00 10° W 16:51:50 85° N 16:56:37 10° E daylight
25 Mar - 18:29:15 10° W 18:33:53 51° SSW 18:38:29 10° SE daylight
25 Mar - 20:12:36 10° WSW 20:15:16 15° SW 20:17:55 10° S daylight
26 Mar - 12:08:01 10° S 12:11:14 18° SE 12:14:27 10° E visible
26 Mar - 13:48:01 10° SW 13:52:43 57° SSE 13:57:25 10° ENE daylight
26 Mar - 15:30:01 10° W 15:34:50 83° N 15:39:39 10° E daylight
26 Mar - 17:12:16 10° WNW 17:17:05 79° SSW 17:21:51 10° ESE daylight
26 Mar - 18:54:42 10° W 18:58:52 30° SW 19:02:59 10° SSE daylight
27 Mar - 12:31:48 10° SSW 12:36:03 32° SE 12:40:19 10° E visible
27 Mar - 14:13:04 10° WSW 14:17:53 81° SSE 14:22:41 10° E daylight
27 Mar - 15:55:18 10° W 16:00:08 84° N 16:04:56 10° E daylight
27 Mar - 17:37:33 10° WNW 17:42:13 54° SSW 17:46:52 10° SE daylight
27 Mar - 19:20:41 10° W 19:23:39 17° SW 19:26:37 10° S daylight
28 Mar - 11:16:39 10° S 11:19:36 16° SE 11:22:35 10° E visible
28 Mar - 12:56:23 10° SW 13:01:02 54° SSE 13:05:44 10° ENE visible
28 Mar - 14:38:18 10° W 14:43:08 84° N 14:47:57 10° E daylight
28 Mar - 16:20:34 10° W 16:25:23 82° SSW 16:30:11 10° ESE daylight
28 Mar - 18:02:56 10° W 18:07:13 33° SW 18:11:27 10° SSE daylight
29 Mar - 11:40:15 10° SSW 11:44:24 30° SE 11:48:34 10° E visible
29 Mar - 13:21:22 10° WSW 13:26:10 78° SSE 13:30:59 10° ENE visible
29 Mar - 15:03:36 10° W 15:08:26 83° N 15:13:14 10° E daylight
29 Mar - 16:45:50 10° WNW 16:50:33 58° SSW 16:55:14 10° SE daylight
29 Mar - 18:28:47 10° W 18:32:01 18° SW 18:35:15 10° S daylight
30 Mar - 10:25:20 10° S 10:27:59 15° SE 10:30:39 10° ESE visible
30 Mar - 12:04:44 10° SW 12:09:21 50° SSE 12:14:01 10° E visible
30 Mar - 13:46:35 10° W 13:51:25 86° N 13:56:15 10° E daylight
30 Mar - 15:28:51 10° W 15:33:41 84° SSW 15:38:29 10° ESE daylight
30 Mar - 17:11:11 10° W 17:15:33 35° SSW 17:19:53 10° SSE daylight
